| time (UTC) | temp F | wind direction | speed knots | gust knots | rain 1hr in | rain 24hr in | rain mn in | humidity % | barometer mb |
| 20260906031544 | 73 | 0 | 0.0 | 0.0 | 0.00 | 0.24 | 0.24 | 90 | 1016.0 |
| 20260906030035 | 73 | 193 | 0.9 | 2.6 | 0.00 | 0.24 | 0.24 | 90 | 1016.0 |
| 20260906024535 | 73 | 0 | 0.0 | 0.0 | 0.00 | 0.24 | 0.24 | 90 | 1015.9 |
| 20260906023037 | 73 | 0 | 0.0 | 0.0 | 0.00 | 0.24 | 0.24 | 90 | 1015.8 |
| 20260906021536 | 72 | 0 | 0.0 | 0.0 | 0.00 | 0.24 | 0.24 | 91 | 1015.8 |
| 20260906020039 | 72 | 0 | 0.0 | 0.0 | 0.00 | 0.24 | 0.24 | 91 | 1015.6 |
| 20260906014537 | 73 | 0 | 0.0 | 0.0 | 0.00 | 0.24 | 0.24 | 91 | 1015.4 |
| 20260906013034 | 73 | 0 | 0.0 | 0.0 | 0.00 | 0.24 | 0.24 | 91 | 1015.4 |
| 20260906011539 | 73 | 0 | 0.0 | 0.0 | 0.00 | 0.24 | 0.24 | 91 | 1015.5 |
| 20260906010039 | 73 | 0 | 0.0 | 0.0 | 0.00 | 0.24 | 0.24 | 90 | 1015.1 |
| 20260906004537 | 74 | 0 | 0.0 | 0.0 | 0.00 | 0.24 | 0.24 | 90 | 1015.1 |
| 20260906003036 | 75 | 0 | 0.0 | 0.0 | 0.00 | 0.24 | 0.24 | 89 | 1015.0 |
| 20260906001535 | 75 | 0 | 0.0 | 0.0 | 0.00 | 0.24 | 0.24 | 89 | 1014.8 |
| 20260906000034 | 76 | 0 | 0.0 | 0.0 | 0.00 | 0.24 | 0.24 | 88 | 1014.7 |
| 20260905234534 | 77 | 0 | 0.0 | 0.0 | 0.00 | 0.24 | 0.24 | 87 | 1014.4 |
| 20260905233042 | 79 | 0 | 0.0 | 0.0 | 0.00 | 0.24 | 0.24 | 85 | 1014.4 |
| 20260905231536 | 79 | 0 | 0.0 | 0.0 | 0.00 | 0.24 | 0.24 | 84 | 1014.4 |
| 20260905230045 | 79 | 0 | 0.0 | 0.0 | 0.00 | 0.24 | 0.24 | 84 | 1014.3 |
| 20260905224549 | 79 | 0 | 0.0 | 0.0 | 0.00 | 0.24 | 0.24 | 82 | 1014.3 |
| 20260905223035 | 80 | 0 | 0.0 | 0.0 | 0.00 | 0.24 | 0.24 | 80 | 1014.3 |
| 20260905221547 | 80 | 0 | 0.0 | 0.9 | 0.00 | 0.24 | 0.24 | 78 | 1014.1 |
| 20260905220040 | 80 | 0 | 0.0 | 0.0 | 0.00 | 0.24 | 0.24 | 78 | 1014.2 |
| 20260905214538 | 80 | 0 | 0.0 | 0.0 | 0.00 | 0.24 | 0.24 | 79 | 1014.4 |
| 20260905213035 | 78 | 0 | 0.0 | 0.0 | 0.00 | 0.24 | 0.24 | 80 | 1014.7 |
| 20260905211534 | 76 | 0 | 0.0 | 0.0 | 0.00 | 0.24 | 0.24 | 83 | 1014.8 |
| 20260905210035 | 75 | 0 | 0.0 | 0.0 | 0.00 | 0.24 | 0.24 | 87 | 1014.8 |
| 20260905204533 | 74 | 0 | 0.0 | 0.0 | 0.00 | 0.24 | 0.24 | 90 | 1015.1 |
| 20260905203037 | 74 | 0 | 0.0 | 0.9 | 0.00 | 0.24 | 0.24 | 91 | 1015.3 |
| 20260905201542 | 73 | 0 | 0.0 | 0.0 | 0.00 | 0.24 | 0.24 | 91 | 1015.5 |
| 20260905200047 | 73 | 0 | 0.0 | 3.5 | 0.00 | 0.24 | 0.24 | 92 | 1015.5 |
| 20260905194534 | 72 | 90 | 0.0 | 1.7 | 0.00 | 0.24 | 0.24 | 91 | 1015.5 |
| 20260905193033 | 72 | 0 | 0.0 | 4.3 | 0.00 | 0.24 | 0.24 | 89 | 1015.7 |
| 20260905191536 | 72 | 0 | 2.6 | 9.6 | 0.09 | 0.24 | 0.24 | 89 | 1015.6 |
| 20260905190035 | 72 | 121 | 1.7 | 7.8 | 0.24 | 0.24 | 0.24 | 88 | 1015.9 |
| 20260905184536 | 72 | 140 | 2.6 | 9.6 | 0.24 | 0.24 | 0.24 | 87 | 1015.8 |
| 20260905183033 | 75 | 192 | 4.3 | 11.3 | 0.24 | 0.24 | 0.24 | 83 | 1015.6 |
| 20260905181559 | 81 | 159 | 1.7 | 12.2 | 0.13 | 0.13 | 0.13 | 75 | 1016.4 |
| 20260905180036 | 91 | 207 | 0.9 | 5.2 | 0.00 | 0.00 | 0.00 | 61 | 1015.6 |
| 20260905174547 | 92 | 211 | 1.7 | 6.1 | 0.00 | 0.00 | 0.00 | 57 | 1015.8 |
| 20260905173035 | 92 | 174 | 2.6 | 6.1 | 0.00 | 0.00 | 0.00 | 60 | 1016.3 |
| 20260905171541 | 91 | 216 | 0.9 | 7.0 | 0.00 | 0.00 | 0.00 | 59 | 1016.5 |
| 20260905170035 | 90 | 175 | 2.6 | 7.0 | 0.00 | 0.00 | 0.00 | 59 | 1016.5 |
| 20260905164537 | 90 | 263 | 0.9 | 7.0 | 0.00 | 0.00 | 0.00 | 61 | 1016.6 |
| 20260905163035 | 90 | 209 | 3.5 | 9.6 | 0.00 | 0.00 | 0.00 | 63 | 1016.9 |
| 20260905161534 | 90 | 0 | 0.9 | 6.1 | 0.00 | 0.00 | 0.00 | 63 | 1017.2 |
| 20260905160105 | 89 | 192 | 0.9 | 5.2 | 0.00 | 0.00 | 0.00 | 66 | 1017.3 |
| 20260905154535 | 88 | 0 | 0.0 | 2.6 | 0.00 | 0.00 | 0.00 | 69 | 1017.3 |
| 20260905153033 | 88 | 0 | 0.0 | 0.9 | 0.00 | 0.00 | 0.00 | 68 | 1017.3 |
| 20260905151537 | 88 | 0 | 0.0 | 0.9 | 0.00 | 0.00 | 0.00 | 70 | 1017.1 |
| 20260905150040 | 87 | 0 | 0.0 | 0.9 | 0.00 | 0.00 | 0.00 | 70 | 1017.2 |
| 20260905144534 | 86 | 0 | 0.0 | 0.0 | 0.00 | 0.00 | 0.00 | 74 | 1017.0 |
| 20260905143036 | 86 | 0 | 0.0 | 0.0 | 0.00 | 0.00 | 0.00 | 75 | 1017.1 |
| 20260905141540 | 85 | 0 | 0.0 | 0.0 | 0.00 | 0.00 | 0.00 | 76 | 1017.0 |
| 20260905140038 | 84 | 0 | 0.0 | 0.0 | 0.00 | 0.00 | 0.00 | 77 | 1017.0 |
| 20260905134536 | 83 | 0 | 0.0 | 0.0 | 0.00 | 0.00 | 0.00 | 77 | 1017.1 |
| 20260905133037 | 82 | 0 | 0.0 | 0.0 | 0.00 | 0.00 | 0.00 | 79 | 1017.1 |
| 20260905131534 | 81 | 0 | 0.0 | 0.0 | 0.00 | 0.00 | 0.00 | 79 | 1017.2 |
| 20260905130035 | 79 | 0 | 0.0 | 0.0 | 0.00 | 0.00 | 0.00 | 82 | 1017.4 |
| 20260905124539 | 78 | 0 | 0.0 | 0.0 | 0.00 | 0.00 | 0.00 | 84 | 1017.4 |
| 20260905123037 | 76 | 0 | 0.0 | 0.0 | 0.00 | 0.00 | 0.00 | 89 | 1017.3 |
| 20260905121535 | 75 | 0 | 0.0 | 0.0 | 0.00 | 0.00 | 0.00 | 91 | 1017.2 |
| 20260905120034 | 73 | 0 | 0.0 | 0.0 | 0.00 | 0.00 | 0.00 | 93 | 1017.1 |
| 20260905114535 | 72 | 0 | 0.0 | 0.0 | 0.00 | 0.00 | 0.00 | 93 | 1017.0 |
| 20260905113035 | 72 | 0 | 0.0 | 0.0 | 0.00 | 0.00 | 0.00 | 93 | 1016.8 |
| 20260905111536 | 72 | 0 | 0.0 | 0.0 | 0.00 | 0.00 | 0.00 | 93 | 1016.6 |
| 20260905110034 | 72 | 0 | 0.0 | 0.0 | 0.00 | 0.00 | 0.00 | 93 | 1016.4 |
| 20260905104537 | 72 | 0 | 0.0 | 0.0 | 0.00 | 0.00 | 0.00 | 93 | 1016.3 |
| 20260905103044 | 72 | 0 | 0.0 | 0.0 | 0.00 | 0.00 | 0.00 | 93 | 1016.1 |
| 20260905101535 | 72 | 0 | 0.0 | 0.0 | 0.00 | 0.00 | 0.00 | 94 | 1016.1 |
| 20260905100034 | 72 | 0 | 0.0 | 0.0 | 0.00 | 0.00 | 0.00 | 94 | 1015.9 |
| 20260905094537 | 72 | 0 | 0.0 | 0.0 | 0.00 | 0.00 | 0.00 | 94 | 1015.9 |
| 20260905093034 | 72 | 0 | 0.0 | 0.0 | 0.00 | 0.00 | 0.00 | 94 | 1016.0 |
| 20260905091609 | 73 | 0 | 0.0 | 0.0 | 0.00 | 0.00 | 0.00 | 94 | 1016.0 |
| 20260905090033 | 73 | 0 | 0.0 | 0.0 | 0.00 | 0.00 | 0.00 | 94 | 1015.9 |
| 20260905084534 | 73 | 0 | 0.0 | 0.0 | 0.00 | 0.00 | 0.00 | 93 | 1016.2 |
| 20260905083035 | 73 | 0 | 0.0 | 0.0 | 0.00 | 0.00 | 0.00 | 94 | 1016.3 |
| 20260905081536 | 73 | 0 | 0.0 | 0.0 | 0.00 | 0.00 | 0.00 | 93 | 1016.5 |
| 20260905080042 | 73 | 0 | 0.0 | 0.0 | 0.00 | 0.00 | 0.00 | 93 | 1016.6 |
| 20260905074539 | 74 | 0 | 0.0 | 0.0 | 0.00 | 0.00 | 0.00 | 92 | 1016.7 |
| 20260905073035 | 74 | 0 | 0.0 | 0.0 | 0.00 | 0.00 | 0.00 | 92 | 1016.8 |
| 20260905071535 | 74 | 0 | 0.0 | 0.0 | 0.00 | 0.00 | 0.00 | 91 | 1016.9 |
| 20260905070037 | 74 | 0 | 0.0 | 0.0 | 0.00 | 0.00 | 0.00 | 91 | 1017.1 |
| 20260905064538 | 75 | 0 | 0.0 | 0.0 | 0.00 | 0.00 | 0.00 | 90 | 1017.3 |
| 20260905063033 | 75 | 0 | 0.0 | 0.0 | 0.00 | 0.00 | 0.00 | 89 | 1017.4 |
| 20260905061552 | 75 | 0 | 0.0 | 0.0 | 0.00 | 0.00 | 0.00 | 89 | 1017.5 |
| 20260905060035 | 75 | 0 | 0.0 | 0.0 | 0.00 | 0.00 | 0.00 | 88 | 1017.6 |
| 20260905054534 | 76 | 0 | 0.0 | 0.0 | 0.00 | 0.00 | 0.00 | 86 | 1017.8 |
| 20260905053035 | 77 | 0 | 0.0 | 4.3 | 0.00 | 0.00 | 0.00 | 84 | 1017.8 |
| 20260905051539 | 77 | 0 | 0.0 | 0.0 | 0.00 | 0.00 | 0.00 | 83 | 1017.8 |
| 20260905050036 | 78 | 0 | 0.0 | 0.9 | 0.00 | 0.00 | 0.00 | 81 | 1017.6 |
| 20260905044538 | 79 | 0 | 0.0 | 0.9 | 0.00 | 0.00 | 0.00 | 80 | 1017.7 |
| 20260905043032 | 79 | 0 | 0.0 | 0.0 | 0.00 | 0.00 | 0.00 | 79 | 1017.8 |
| 20260905041534 | 80 | 0 | 0.0 | 0.0 | 0.00 | 0.00 | 0.00 | 78 | 1017.6 |
| 20260905040037 | 80 | 0 | 0.0 | 3.5 | 0.00 | 0.00 | 0.00 | 77 | 1017.8 |
| 20260905034543 | 81 | 0 | 0.0 | 1.7 | 0.00 | 0.00 | 0.00 | 76 | 1017.7 |
| 20260905033036 | 81 | 0 | 0.0 | 4.3 | 0.00 | 0.00 | 0.00 | 77 | 1017.6 |